Regional Weather Roundup
Issued by NWS

Home | Current Version | Previous Version | Graphics & Text | Print | Product List | Glossary On
Versions: 1 2 3 4 5 6 7 8 9 10 11 12 13 14 15 16 17 18 19 20 21 22 23 24 25 26 27 28 29 30 31 32 33 34 35 36 37 38 39 40 41 42 43 44 45 46 47 48 49 50
000
ASUS45 KCYS 190110
RWRWY

WYOMING REGIONAL WEATHER ROUNDUP
NATIONAL WEATHER SERVICE CHEYENNE WY
700 PM MDT SAT APR 18 2015

NOTE:  "FAIR" INDICATES FEW OR NO CLOUDS BELOW 12,000 FEET
WITH NO SIGNIFICANT WEATHER AND/OR OBSTRUCTIONS TO VISIBILITY.

WYZ001-190200-
YELLOWSTONE NATIONAL PARK

CITY           SKY/WX    TMP DP  RH WIND       PRES   REMARKS
LK YELLOWSTONE   N/A     43  22  43 VRB7G17   30.15R
W YELLOWSTONE  NOT AVBL

$$
WYZ002>013-054>058-071-098>099-190200-
NORTHERN WYOMING

CITY           SKY/WX    TMP DP  RH WIND       PRES   REMARKS
JACKSON        SUNNY     57  16  19 NW12G18   30.00S
CODY           CLOUDY    43  28  56 N15G25    30.16R
GREYBULL       CLOUDY    53  29  39 NW35G46   30.05R
WORLAND        CLOUDY    54  31  41 NW31G43   30.02R
SHERIDAN       CLOUDY    48  33  56 NW26G35   30.11R
BUFFALO        LGT RAIN  44  36  73 NW30G41   30.09R
GILLETTE       CLOUDY    49  38  65 N20       30.00R
HULETT         LGT RAIN  46  43  87 N17G24    30.00R
NEWCASTLE      LGT RAIN  43  37  81 NE15      29.95R

$$
WYZ014>020-022>026-101>103-190200-
CENTRAL WYOMING

CITY           SKY/WX    TMP DP  RH WIND       PRES   REMARKS
BIG PINEY      FAIR      56  11  16 N16       30.01R
PINEDALE       FAIR      48  30  49 NE16G22   30.02R
DUBOIS         FAIR      48  25  40 SE10      30.02R
LANDER         CLOUDY    53  29  39 N24G33    30.01R
RIVERTON       FAIR      52  31  44 N28G43    30.01R
CASPER         MOCLDY    39  37  92 SE5       30.01R
DOUGLAS        LGT RAIN  44  37  76 E9G17     29.96F

$$
WYZ021-027>030-104>119-190200-
SOUTHERN WYOMING

CITY           SKY/WX    TMP DP  RH WIND       PRES   REMARKS
EVANSTON       FAIR      55  19  24 N20       30.04R
KEMMERER       FAIR      54  19  26 NW18G28   30.02S
FORT BRIDGER   CLOUDY    59  23  25 N21G28    30.04R
ROCK SPRINGS   PTSUNNY   51  23  33 NE23G37   29.99R
DIXON          MOCLDY    38  34  86 E7        30.04F WCI  32
RAWLINS        LGT SNOW  35  33  92 CALM      30.04R FOG
SARATOGA       CLOUDY    34  32  93 MISG      30.01F
LARAMIE        CLOUDY    32  31  96 N10       29.98R WCI  24
CHEYENNE       FAIR      40  32  73 N14       29.93S WCI  32
TORRINGTON     CLOUDY    50  41  71 N13G23    29.92R
PINE BLUFFS    CLOUDY    43  37  81 E6        29.93R

$$



USA.gov is the U.S. government's official web portal to all federal, state and local government web resources and services.